VLG29DE LEIB-LEBL

Flight info

Callsign VLG29DE
Flight time 0h 32m
Altitude 24000
Route EPAMA N856 MARTA
Aircraft A320/M-SDE3FGHIRWY/LB1

Departure

Time 2026-05-07 20:28
Airport Ibiza Airport (LEIB)

Arrival

Time 2026-05-07 21:01
Airport Josep Tarradellas Barcelona-El Prat Airport (LEBL)
Time Latitude Longitude Altitude Speed Heading
2026-05-07 20:20 38.87567 1.36915 -19 ft 0 kts 333°
2026-05-07 20:21 38.87561 1.36919 -19 ft 4 kts 331°
2026-05-07 20:21 38.87538 1.36937 9 ft 4 kts 321°
2026-05-07 20:22 38.87519 1.36961 11 ft 4 kts 296°
2026-05-07 20:22 38.87515 1.36987 12 ft 1 kts 241°
2026-05-07 20:22 38.87517 1.36993 11 ft 0 kts 241°
2026-05-07 20:24 38.87514 1.36986 8 ft 4 kts 241°
2026-05-07 20:24 38.87484 1.36914 8 ft 13 kts 241°
2026-05-07 20:24 38.87440 1.36809 8 ft 11 kts 239°
2026-05-07 20:25 38.87371 1.36819 9 ft 12 kts 153°
2026-05-07 20:25 38.87286 1.36849 8 ft 14 kts 215°
2026-05-07 20:25 38.87233 1.36735 8 ft 16 kts 242°
2026-05-07 20:25 38.87174 1.36593 8 ft 20 kts 243°
2026-05-07 20:26 38.87106 1.36424 8 ft 23 kts 242°
2026-05-07 20:26 38.87027 1.36231 8 ft 26 kts 242°
2026-05-07 20:26 38.86937 1.36013 8 ft 29 kts 241°
2026-05-07 20:26 38.86877 1.35870 8 ft 17 kts 242°
2026-05-07 20:27 38.86815 1.35823 8 ft 12 kts 156°
2026-05-07 20:27 38.86727 1.35893 5 ft 17 kts 136°
2026-05-07 20:27 38.86727 1.35966 6 ft 0 kts 62°
2026-05-07 20:27 38.86731 1.35978 5 ft 9 kts 62°
2026-05-07 20:28 38.86882 1.36339 4 ft 84 kts 62°
2026-05-07 20:28 38.87257 1.37244 9 ft 142 kts 61°
2026-05-07 20:28 38.87743 1.38428 539 ft 151 kts 59°
2026-05-07 20:28 38.88195 1.39642 1333 ft 150 kts 66°
2026-05-07 20:29 38.88468 1.40956 1996 ft 155 kts 77°
2026-05-07 20:29 38.88685 1.42310 2715 ft 154 kts 74°
2026-05-07 20:29 38.88925 1.43646 3379 ft 156 kts 73°
2026-05-07 20:29 38.89194 1.45091 3768 ft 178 kts 73°
2026-05-07 20:30 38.89498 1.46733 4116 ft 200 kts 74°
2026-05-07 20:30 38.89827 1.48540 4766 ft 211 kts 75°
2026-05-07 20:30 38.90160 1.50384 5683 ft 214 kts 75°
2026-05-07 20:30 38.90493 1.52225 6703 ft 208 kts 75°
2026-05-07 20:31 38.90993 1.53953 7558 ft 207 kts 59°
2026-05-07 20:31 38.91877 1.55435 8324 ft 213 kts 43°
2026-05-07 20:31 38.92997 1.56713 9094 ft 218 kts 41°
2026-05-07 20:31 38.94147 1.58025 9849 ft 224 kts 41°
2026-05-07 20:32 38.95311 1.59361 10450 ft 235 kts 41°
2026-05-07 20:32 38.96596 1.60836 10814 ft 259 kts 41°
2026-05-07 20:32 38.98003 1.62451 11181 ft 283 kts 41°
2026-05-07 20:32 38.99585 1.64082 11703 ft 298 kts 31°
2026-05-07 20:33 39.01478 1.65207 12446 ft 303 kts 15°
2026-05-07 20:33 39.03565 1.65696 13243 ft 308 kts
2026-05-07 20:33 39.05713 1.65985 14014 ft 313 kts
2026-05-07 20:33 39.07898 1.66236 14714 ft 317 kts 359°
2026-05-07 20:34 39.10104 1.65977 15404 ft 321 kts 346°
2026-05-07 20:34 39.12285 1.65067 15654 ft 341 kts 334°
2026-05-07 20:34 39.14517 1.63804 15926 ft 358 kts 334°
2026-05-07 20:34 39.16825 1.62496 16492 ft 365 kts 335°
2026-05-07 20:35 39.19170 1.61172 17166 ft 370 kts 335°
2026-05-07 20:35 39.21545 1.59837 17855 ft 374 kts 335°
2026-05-07 20:35 39.23946 1.58493 18504 ft 378 kts 335°
2026-05-07 20:35 39.26368 1.57140 19111 ft 382 kts 335°
2026-05-07 20:36 39.28821 1.55769 19742 ft 386 kts 335°
2026-05-07 20:36 39.31294 1.54386 20357 ft 389 kts 335°
2026-05-07 20:36 39.33792 1.52989 20941 ft 393 kts 335°
2026-05-07 20:36 39.36314 1.51574 21504 ft 397 kts 335°
2026-05-07 20:37 39.38866 1.50138 22042 ft 401 kts 335°
2026-05-07 20:37 39.41437 1.48689 22572 ft 405 kts 335°
2026-05-07 20:37 39.44036 1.47228 23133 ft 410 kts 335°
2026-05-07 20:37 39.46661 1.45751 23650 ft 414 kts 335°
2026-05-07 20:38 39.49313 1.44255 23899 ft 416 kts 335°
2026-05-07 20:38 39.51954 1.42768 23949 ft 409 kts 335°
2026-05-07 20:38 39.54543 1.41310 23955 ft 404 kts 335°
2026-05-07 20:38 39.57119 1.39856 23958 ft 403 kts 335°
2026-05-07 20:39 39.59723 1.38528 23966 ft 404 kts 341°
2026-05-07 20:39 39.62477 1.37750 23969 ft 406 kts 352°
2026-05-07 20:39 39.65289 1.37371 23968 ft 407 kts 353°
2026-05-07 20:39 39.68069 1.37009 23972 ft 407 kts 353°
2026-05-07 20:40 39.70894 1.36641 23976 ft 408 kts 353°
2026-05-07 20:40 39.73718 1.36272 23974 ft 408 kts 353°
2026-05-07 20:40 39.76548 1.35896 23975 ft 409 kts 353°
2026-05-07 20:40 39.79380 1.35516 23974 ft 409 kts 353°
2026-05-07 20:41 39.82209 1.35135 23981 ft 409 kts 353°
2026-05-07 20:41 39.85040 1.34754 23987 ft 409 kts 353°
2026-05-07 20:41 39.87873 1.34374 23981 ft 410 kts 353°
2026-05-07 20:41 39.90714 1.33995 23988 ft 410 kts 353°
2026-05-07 20:42 39.93558 1.33619 23985 ft 411 kts 353°
2026-05-07 20:42 39.96400 1.33244 23990 ft 411 kts 353°
2026-05-07 20:42 39.99244 1.32867 23994 ft 411 kts 353°
2026-05-07 20:42 40.02094 1.32485 23997 ft 411 kts 353°
2026-05-07 20:43 40.04945 1.32100 23995 ft 412 kts 352°
2026-05-07 20:43 40.07795 1.31717 23996 ft 412 kts 352°
2026-05-07 20:43 40.10646 1.31333 23998 ft 412 kts 352°
2026-05-07 20:43 40.13498 1.30948 23998 ft 412 kts 352°
2026-05-07 20:44 40.16345 1.30562 23889 ft 419 kts 352°
2026-05-07 20:44 40.19282 1.30163 23298 ft 419 kts 352°
2026-05-07 20:44 40.22140 1.29804 22808 ft 416 kts 356°
2026-05-07 20:44 40.25030 1.30108 22404 ft 411 kts 12°
2026-05-07 20:45 40.27682 1.31428 21894 ft 408 kts 30°
2026-05-07 20:45 40.30087 1.33367 21388 ft 405 kts 32°
2026-05-07 20:45 40.32433 1.35296 20879 ft 402 kts 32°
2026-05-07 20:45 40.34790 1.37237 20366 ft 399 kts 32°
2026-05-07 20:46 40.37161 1.39184 19933 ft 394 kts 31°
2026-05-07 20:46 40.39448 1.41058 19449 ft 390 kts 31°
2026-05-07 20:46 40.41740 1.42934 18912 ft 389 kts 31°
2026-05-07 20:46 40.44016 1.44795 18555 ft 381 kts 31°
2026-05-07 20:47 40.46251 1.46626 18050 ft 378 kts 31°
2026-05-07 20:47 40.48473 1.48445 17548 ft 374 kts 31°
2026-05-07 20:47 40.50666 1.50241 17041 ft 369 kts 31°
2026-05-07 20:47 40.52833 1.52025 16564 ft 365 kts 31°
2026-05-07 20:48 40.54968 1.53789 16086 ft 361 kts 31°
2026-05-07 20:48 40.57085 1.55538 15611 ft 357 kts 31°
2026-05-07 20:48 40.59176 1.57264 15159 ft 352 kts 31°
2026-05-07 20:48 40.61237 1.58964 14706 ft 347 kts 31°
2026-05-07 20:49 40.63271 1.60638 14262 ft 343 kts 31°
2026-05-07 20:49 40.65279 1.62294 13829 ft 339 kts 31°
2026-05-07 20:49 40.67248 1.63921 13132 ft 329 kts 32°
2026-05-07 20:49 40.69141 1.65488 12707 ft 312 kts 32°
2026-05-07 20:50 40.70933 1.66971 12309 ft 298 kts 32°
2026-05-07 20:50 40.72648 1.68391 11935 ft 285 kts 32°
2026-05-07 20:50 40.74306 1.69768 11573 ft 281 kts 33°
2026-05-07 20:50 40.75965 1.71150 11207 ft 282 kts 33°
2026-05-07 20:51 40.77626 1.72529 10825 ft 283 kts 33°
2026-05-07 20:51 40.79275 1.73895 10522 ft 280 kts 33°
2026-05-07 20:51 40.80932 1.75271 10224 ft 278 kts 33°
2026-05-07 20:51 40.82553 1.76623 10046 ft 274 kts 33°
2026-05-07 20:52 40.84166 1.77971 9715 ft 277 kts 33°
2026-05-07 20:52 40.85815 1.79346 9344 ft 278 kts 33°
2026-05-07 20:52 40.87430 1.80689 9145 ft 272 kts 33°
2026-05-07 20:52 40.89015 1.82008 8939 ft 264 kts 33°
2026-05-07 20:53 40.90541 1.83277 8567 ft 256 kts 33°
2026-05-07 20:53 40.92035 1.84522 8110 ft 252 kts 33°
2026-05-07 20:53 40.93505 1.85751 7653 ft 248 kts 34°
2026-05-07 20:53 40.94957 1.86964 7203 ft 245 kts 33°
2026-05-07 20:54 40.96386 1.88158 6766 ft 242 kts 34°
2026-05-07 20:54 40.97798 1.89341 6327 ft 239 kts 34°
2026-05-07 20:54 40.99206 1.90520 5876 ft 241 kts 33°
2026-05-07 20:54 41.00622 1.91709 5419 ft 239 kts 34°
2026-05-07 20:55 41.02004 1.92872 5064 ft 231 kts 34°
2026-05-07 20:55 41.03348 1.93996 4763 ft 229 kts 34°
2026-05-07 20:55 41.04694 1.95120 4454 ft 229 kts 33°
2026-05-07 20:55 41.06039 1.96247 4177 ft 227 kts 34°
2026-05-07 20:56 41.07368 1.97364 3890 ft 226 kts 34°
2026-05-07 20:56 41.08688 1.98474 3619 ft 224 kts 34°
2026-05-07 20:56 41.10002 1.99580 3360 ft 222 kts 34°
2026-05-07 20:56 41.11340 2.00551 3172 ft 218 kts 21°
2026-05-07 20:57 41.12740 2.01186 2970 ft 213 kts 20°
2026-05-07 20:57 41.14140 2.01820 2805 ft 206 kts 20°
2026-05-07 20:57 41.15484 2.02429 2680 ft 202 kts 20°
2026-05-07 20:57 41.16790 2.03019 2542 ft 193 kts 20°
2026-05-07 20:58 41.18023 2.03580 2387 ft 188 kts 20°
2026-05-07 20:58 41.19269 2.04147 2201 ft 185 kts 21°
2026-05-07 20:58 41.20461 2.04693 1839 ft 179 kts 20°
2026-05-07 20:58 41.21583 2.05204 1571 ft 162 kts 20°
2026-05-07 20:59 41.22603 2.05671 1354 ft 149 kts 21°
2026-05-07 20:59 41.23542 2.06094 1135 ft 143 kts 20°
2026-05-07 20:59 41.24481 2.06524 956 ft 143 kts 20°
2026-05-07 20:59 41.25414 2.06954 765 ft 142 kts 20°
2026-05-07 21:00 41.26346 2.07375 548 ft 140 kts 19°
2026-05-07 21:00 41.27272 2.07794 377 ft 141 kts 20°
2026-05-07 21:00 41.28194 2.08218 181 ft 140 kts 20°
2026-05-07 21:00 41.29108 2.08637 13 ft 135 kts 19°
2026-05-07 21:01 41.29883 2.08990 6 ft 95 kts 18°
2026-05-07 21:01 41.30337 2.09198 5 ft 36 kts 19°
2026-05-07 21:01 41.30524 2.09280 7 ft 17 kts 15°
2026-05-07 21:01 41.30637 2.09220 5 ft 21 kts 318°
2026-05-07 21:02 41.30682 2.09109 3 ft 14 kts 247°
2026-05-07 21:02 41.30583 2.09047 3 ft 18 kts 198°
2026-05-07 21:02 41.30456 2.08986 3 ft 21 kts 200°
2026-05-07 21:02 41.30364 2.08825 4 ft 24 kts 244°
2026-05-07 21:03 41.30287 2.08606 3 ft 28 kts 248°
2026-05-07 21:03 41.30220 2.08404 3 ft 21 kts 245°
2026-05-07 21:03 41.30153 2.08211 3 ft 25 kts 245°
2026-05-07 21:03 41.30085 2.08017 3 ft 16 kts 236°
2026-05-07 21:04 41.29982 2.08031 3 ft 18 kts 153°
2026-05-07 21:04 41.29860 2.08092 4 ft 19 kts 160°
2026-05-07 21:04 41.29731 2.08162 6 ft 21 kts 156°
2026-05-07 21:04 41.29588 2.08246 3 ft 24 kts 155°
2026-05-07 21:05 41.29442 2.08337 3 ft 15 kts 156°
2026-05-07 21:05 41.29337 2.08398 4 ft 17 kts 156°
2026-05-07 21:05 41.29221 2.08456 3 ft 18 kts 186°
2026-05-07 21:05 41.29097 2.08402 3 ft 13 kts 199°
2026-05-07 21:06 41.29038 2.08330 3 ft 13 kts 245°
2026-05-07 21:06 41.29013 2.08256 4 ft 14 kts 246°
2026-05-07 21:06 41.29029 2.08187 4 ft 9 kts 335°
2026-05-07 21:06 41.29061 2.08169 3 ft 2 kts 336°
2026-05-07 21:07 41.29068 2.08165 3 ft 0 kts 336°